When you browse on this site, cookies collect data to enhance your experience and personalize the content and advertising you see.
Visit our Privacy Policy to learn more. By continuing to use the site, you agree to this use of cookies and data.
  • In Österreich
  • Länderverzeichnis
  • Für 7 Tage
  • Wassertemperatur
  • Satellitenkarten
  • Wetterkarte
  • News
  • Widgets
  • user-avatar
    Anmelden

    Stündliche Wetter Vetchin

    Heute, 26 Mai, Sonntag

    Zeit Temperatur Niederschläge Wind Luftdruck Luftfeuchtigkeit
    00:00 +14°C° 0 mm 2 m/S 744 mmHg 83%
    01:00 +13°C° 0 mm 2 m/S 744 mmHg 87%
    02:00 +13°C° 0 mm 2 m/S 744 mmHg 91%
    03:00 +12°C° 0 mm 2 m/S 744 mmHg 91%
    04:00 +12°C° 0 mm 2 m/S 744 mmHg 92%
    05:00 +12°C° 0 mm 2 m/S 745 mmHg 92%
    06:00 +12°C° 0 mm 3 m/S 745 mmHg 83%
    07:00 +14°C° 0 mm 3 m/S 745 mmHg 75%
    08:00 +16°C° 0 mm 3 m/S 745 mmHg 66%
    09:00 +17°C° 0 mm 4 m/S 745 mmHg 62%
    10:00 +18°C° 0 mm 4 m/S 745 mmHg 58%
    11:00 +17°C° 0 mm 5 m/S 745 mmHg 54%
    12:00 +19°C° 0 mm 5 m/S 745 mmHg 55%
    13:00 +19°C° 0 mm 5 m/S 745 mmHg 55%
    14:00 +19°C° 0 mm 5 m/S 745 mmHg 56%
    15:00 +19°C° 0 mm 5 m/S 745 mmHg 57%
    16:00 +19°C° 0 mm 5 m/S 745 mmHg 59%
    17:00 +19°C° 0 mm 4 m/S 745 mmHg 60%
    18:00 +17°C° 0 mm 4 m/S 745 mmHg 67%
    19:00 +16°C° 0 mm 3 m/S 745 mmHg 73%
    20:00 +15°C° 0 mm 2 m/S 745 mmHg 80%
    21:00 +13°C° 0 mm 2 m/S 746 mmHg 84%
    22:00 +12°C° 0 mm 2 m/S 746 mmHg 88%
    23:00 +10°C° 0 mm 2 m/S 746 mmHg 91%

    Morgen, 27 Mai, Montag

    Zeit Temperatur Niederschläge Wind Luftdruck Luftfeuchtigkeit
    00:00 +10°C° 0 mm 2 m/S 746 mmHg 92%
    01:00 +10°C° 0 mm 2 m/S 746 mmHg 92%
    02:00 +9°C° 0 mm 2 m/S 747 mmHg 93%
    03:00 +10°C° 0 mm 2 m/S 746 mmHg 93%
    04:00 +10°C° 0 mm 2 m/S 746 mmHg 92%
    05:00 +10°C° 0 mm 2 m/S 746 mmHg 92%
    06:00 +13°C° 0 mm 3 m/S 746 mmHg 85%
    07:00 +16°C° 0 mm 3 m/S 747 mmHg 77%
    08:00 +19°C° 0 mm 4 m/S 747 mmHg 70%
    09:00 +20°C° 0 mm 4 m/S 747 mmHg 63%
    10:00 +22°C° 0 mm 4 m/S 747 mmHg 56%
    11:00 +25°C° 0 mm 4 m/S 747 mmHg 49%
    12:00 +25°C° 0 mm 4 m/S 746 mmHg 47%
    13:00 +26°C° 0 mm 5 m/S 746 mmHg 46%
    14:00 +27°C° 0 mm 5 m/S 746 mmHg 44%
    15:00 +27°C° 0 mm 5 m/S 746 mmHg 48%
    16:00 +27°C° 0 mm 4 m/S 745 mmHg 51%
    17:00 +26°C° 0 mm 4 m/S 745 mmHg 55%
    18:00 +23°C° 0.1 mm 4 m/S 745 mmHg 64%
    19:00 +22°C° 0.1 mm 3 m/S 745 mmHg 73%
    20:00 +20°C° 0.1 mm 2 m/S 745 mmHg 82%
    21:00 +19°C° 0 mm 2 m/S 746 mmHg 84%
    22:00 +18°C° 0 mm 2 m/S 746 mmHg 87%
    23:00 +17°C° 0 mm 2 m/S 746 mmHg 90%

    übermorgen, 28 Mai, Dienstag

    Zeit Temperatur Niederschläge Wind Luftdruck Luftfeuchtigkeit
    00:00 +17°C° 0.1 mm 2 m/S 746 mmHg 91%
    01:00 +17°C° 0.1 mm 2 m/S 746 mmHg 92%
    02:00 +17°C° 0.1 mm 2 m/S 746 mmHg 94%
    03:00 +17°C° 0 mm 2 m/S 746 mmHg 94%
    04:00 +17°C° 0 mm 2 m/S 745 mmHg 94%
    05:00 +17°C° 0 mm 2 m/S 745 mmHg 95%
    06:00 +18°C° 0 mm 3 m/S 745 mmHg 90%
    07:00 +20°C° 0 mm 3 m/S 745 mmHg 85%
    08:00 +21°C° 0 mm 4 m/S 745 mmHg 80%
    09:00 +23°C° 0 mm 4 m/S 745 mmHg 73%
    10:00 +25°C° 0 mm 5 m/S 745 mmHg 65%
    11:00 +27°C° 0 mm 6 m/S 744 mmHg 57%
    12:00 +27°C° 0.2 mm 6 m/S 744 mmHg 56%
    13:00 +28°C° 0.2 mm 6 m/S 744 mmHg 55%
    14:00 +28°C° 0.2 mm 6 m/S 744 mmHg 54%
    15:00 +28°C° 0.2 mm 6 m/S 744 mmHg 54%
    16:00 +28°C° 0.2 mm 6 m/S 744 mmHg 54%
    17:00 +27°C° 0.2 mm 6 m/S 744 mmHg 54%
    18:00 +26°C° 0 mm 5 m/S 744 mmHg 60%
    19:00 +23°C° 0 mm 4 m/S 744 mmHg 66%
    20:00 +21°C° 0 mm 3 m/S 744 mmHg 72%
    21:00 +21°C° 0 mm 4 m/S 744 mmHg 73%
    22:00 +21°C° 0 mm 4 m/S 744 mmHg 73%
    23:00 +20°C° 0 mm 5 m/S 744 mmHg 73%

    29 Mai, Mittwoch

    Zeit Temperatur Niederschläge Wind Luftdruck Luftfeuchtigkeit
    00:00 +20°C° 0 mm 5 m/S 744 mmHg 73%
    01:00 +19°C° 0 mm 5 m/S 744 mmHg 73%
    02:00 +19°C° 0 mm 5 m/S 744 mmHg 73%
    03:00 +17°C° 0 mm 5 m/S 743 mmHg 72%
    04:00 +17°C° 0 mm 5 m/S 743 mmHg 71%
    05:00 +16°C° 0 mm 5 m/S 743 mmHg 70%
    06:00 +17°C° 0 mm 5 m/S 743 mmHg 68%
    07:00 +19°C° 0 mm 5 m/S 744 mmHg 67%
    08:00 +20°C° 0 mm 5 m/S 744 mmHg 65%
    09:00 +22°C° 0.3 mm 5 m/S 744 mmHg 64%
    10:00 +23°C° 0.3 mm 5 m/S 744 mmHg 64%
    11:00 +25°C° 0.3 mm 5 m/S 744 mmHg 64%
    12:00 +26°C° 0.4 mm 5 m/S 744 mmHg 64%
    13:00 +26°C° 0.4 mm 5 m/S 744 mmHg 64%
    14:00 +27°C° 0.4 mm 5 m/S 744 mmHg 65%
    15:00 +26°C° 2.3 mm 5 m/S 744 mmHg 69%
    16:00 +25°C° 2.3 mm 5 m/S 744 mmHg 74%
    17:00 +23°C° 2.3 mm 5 m/S 744 mmHg 78%
    18:00 +22°C° 0.9 mm 4 m/S 744 mmHg 82%
    19:00 +21°C° 0.9 mm 3 m/S 744 mmHg 86%
    20:00 +20°C° 0.9 mm 2 m/S 744 mmHg 89%
    21:00 +19°C° 0 mm 2 m/S 744 mmHg 91%
    22:00 +19°C° 0 mm 2 m/S 745 mmHg 92%
    23:00 +19°C° 0 mm 1 m/S 745 mmHg 93%

    30 Mai, Donnerstag

    Zeit Temperatur Niederschläge Wind Luftdruck Luftfeuchtigkeit
    00:00 +19°C° 0 mm 1 m/S 745 mmHg 94%
    01:00 +19°C° 0 mm 1 m/S 744 mmHg 94%
    02:00 +19°C° 0 mm 1 m/S 744 mmHg 95%
    03:00 +19°C° 0 mm 1 m/S 744 mmHg 95%
    04:00 +19°C° 0 mm 1 m/S 744 mmHg 95%
    05:00 +19°C° 0 mm 1 m/S 744 mmHg 96%
    06:00 +20°C° 0.5 mm 1 m/S 745 mmHg 92%
    07:00 +21°C° 0.5 mm 1 m/S 745 mmHg 89%
    08:00 +22°C° 0.5 mm 1 m/S 745 mmHg 86%
    09:00 +23°C° 1.9 mm 1 m/S 745 mmHg 83%
    10:00 +24°C° 1.9 mm 1 m/S 745 mmHg 80%
    11:00 +24°C° 1.9 mm 2 m/S 745 mmHg 77%
    12:00 +24°C° 1 mm 2 m/S 745 mmHg 79%
    13:00 +22°C° 1 mm 3 m/S 746 mmHg 82%
    14:00 +22°C° 1 mm 4 m/S 746 mmHg 84%
    15:00 +21°C° 0.2 mm 4 m/S 746 mmHg 84%
    16:00 +20°C° 0.2 mm 4 m/S 746 mmHg 85%
    17:00 +19°C° 0.2 mm 4 m/S 747 mmHg 85%
    18:00 +18°C° 0 mm 4 m/S 747 mmHg 85%
    19:00 +17°C° 0 mm 4 m/S 748 mmHg 85%
    20:00 +14°C° 0 mm 4 m/S 748 mmHg 85%
    21:00 +13°C° 0 mm 4 m/S 748 mmHg 84%
    22:00 +12°C° 0 mm 4 m/S 749 mmHg 84%
    23:00 +11°C° 0 mm 4 m/S 749 mmHg 83%

    31 Mai, Freitag

    Zeit Temperatur Niederschläge Wind Luftdruck Luftfeuchtigkeit
    00:00 +10°C° 0 mm 4 m/S 750 mmHg 83%
    01:00 +10°C° 0 mm 4 m/S 750 mmHg 82%
    02:00 +10°C° 0 mm 3 m/S 750 mmHg 82%
    03:00 +9°C° 0 mm 3 m/S 751 mmHg 82%
    04:00 +9°C° 0 mm 3 m/S 751 mmHg 81%
    05:00 +8°C° 0 mm 3 m/S 751 mmHg 80%
    06:00 +10°C° 0 mm 4 m/S 752 mmHg 75%
    07:00 +11°C° 0 mm 4 m/S 752 mmHg 70%
    08:00 +12°C° 0 mm 4 m/S 752 mmHg 65%
    09:00 +14°C° 0 mm 4 m/S 753 mmHg 60%
    10:00 +15°C° 0 mm 5 m/S 753 mmHg 55%
    11:00 +17°C° 0 mm 5 m/S 753 mmHg 50%
    12:00 +17°C° 0 mm 5 m/S 753 mmHg 49%
    13:00 +19°C° 0 mm 5 m/S 753 mmHg 47%
    14:00 +20°C° 0 mm 5 m/S 753 mmHg 46%
    15:00 +20°C° 0 mm 5 m/S 753 mmHg 48%
    16:00 +19°C° 0 mm 4 m/S 753 mmHg 50%
    17:00 +19°C° 0 mm 4 m/S 754 mmHg 52%
    18:00 +18°C° 0 mm 4 m/S 754 mmHg 59%
    19:00 +16°C° 0 mm 3 m/S 754 mmHg 65%
    20:00 +15°C° 0 mm 2 m/S 755 mmHg 72%
    21:00 +14°C° 0 mm 2 m/S 755 mmHg 72%
    22:00 +13°C° 0 mm 2 m/S 755 mmHg 72%
    23:00 +12°C° 0 mm 2 m/S 755 mmHg 72%
    Mehr zeigen